Date String (YYYY-MM-DD hh:mm:ss) UTC,Instrument flags,Ambient pressure (hPa),Sample flow (lpm),Bypass flow (lpm),Sample temperature (°C),Ambient temperature (°C),ASC tube jacket temperature (°C),LED temperature (°C),Box temperature (°C),Sample RH (%),Span deviation,Mass concentration (μg/m³),Mass concentration (μg/m³),Mass concentration (μg/m³)
DateTimeUTC,F1_M11,P_M11,Q1_M11,Q2_M11,T1_M11,T2_M11,T3_M11,T4_M11,T5_M11,U1_M11,ZSPAN_M11,X0_M11,X2_M11,X1_M11
2021-09-01 06:00:00,,0822.4,4.99,0.00,29.5,28.7,00.0,38.5,31.4,15.9,0001.5,0036.38,0023.74,0022.15
2021-09-01 06:01:00,,0822.4,5.01,0.00,29.5,28.8,00.0,38.5,31.4,15.9,0001.4,0036.71,0023.75,0022.20
2021-09-01 06:02:00,,0822.4,5.00,0.00,29.6,28.8,00.0,38.5,31.5,15.9,0001.6,0037.64,0023.89,0022.30
2021-09-01 06:03:00,,0822.4,5.00,0.00,29.6,28.4,00.0,38.5,31.4,15.8,0001.7,0037.54,0024.01,0022.39
2021-09-01 06:04:00,,0822.4,5.01,0.00,29.5,26.5,00.0,38.5,30.9,15.8,0001.7,0038.48,0024.09,0022.43
2021-09-01 06:05:00,,0822.4,5.00,0.00,29.3,25.5,00.0,38.5,30.6,16.0,0001.6,0039.64,0024.30,0022.56
2021-09-01 06:06:00,,0822.3,5.00,0.00,29.2,25.8,00.0,38.4,30.6,16.0,0001.4,0039.31,0024.49,0022.72
2021-09-01 06:07:00,,0822.3,5.00,0.00,29.2,26.2,00.0,38.4,30.7,16.1,0001.5,0039.65,0024.58,0022.78
2021-09-01 06:08:00,,0822.3,5.01,0.00,29.1,26.7,00.0,38.4,30.8,15.9,0001.4,0040.03,0024.82,0022.98
2021-09-01 06:09:00,,0822.3,4.99,0.00,29.2,27.1,00.0,38.4,30.9,16.0,0001.4,0040.28,0025.00,0023.15
2021-09-01 06:10:00,,0822.3,5.00,0.00,29.2,27.4,00.0,38.3,30.9,16.0,0001.2,0039.52,0025.16,0023.26
2021-09-01 06:11:00,,0822.3,5.00,0.00,29.2,27.7,00.0,38.3,31.0,15.9,0001.3,0038.20,0025.21,0023.34
2021-09-01 06:12:00,,0822.3,5.03,0.00,29.3,27.9,00.0,38.3,31.1,16.0,0001.5,0038.58,0025.33,0023.43
2021-09-01 06:13:00,,0822.3,5.00,0.00,29.3,28.1,00.0,38.4,31.1,15.9,0001.6,0038.33,0025.31,0023.41
2021-09-01 06:14:00,,0822.3,5.00,0.00,29.3,28.2,00.0,38.4,31.2,15.9,0001.4,0039.07,0025.31,0023.41
2021-09-01 06:15:00,,0822.3,5.00,0.00,29.4,28.4,00.0,38.4,31.2,15.9,0001.5,0038.39,0025.25,0023.39
2021-09-01 06:16:00,,0822.2,5.00,0.00,29.4,28.5,00.0,38.4,31.3,15.9,0001.4,0037.40,0025.11,0023.32
2021-09-01 06:17:00,,0822.2,5.00,0.00,29.5,28.6,00.0,38.4,31.3,15.9,0001.4,0037.34,0025.00,0023.22
2021-09-01 06:18:00,,0822.2,4.99,0.00,29.5,28.6,00.0,38.5,31.4,15.9,0001.4,0037.93,0024.98,0023.17
2021-09-01 06:19:00,,0822.2,5.01,0.00,29.6,28.7,00.0,38.5,31.4,15.8,0001.3,0037.56,0024.81,0023.08
2021-09-01 06:20:00,,0822.2,5.00,0.00,29.6,28.8,00.0,38.5,31.5,15.8,0001.1,0038.51,0024.69,0023.00
2021-09-01 06:21:00,,0822.2,4.99,0.00,29.6,28.8,00.0,38.5,31.5,15.8,0001.1,0038.41,0024.56,0022.91
2021-09-01 06:22:00,,0822.2,5.01,0.00,29.6,27.8,00.0,38.5,31.2,15.8,0001.3,0038.49,0024.46,0022.84
2021-09-01 06:23:00,,0822.2,5.00,0.00,29.5,26.4,00.0,38.5,30.9,15.9,0001.1,0037.51,0024.22,0022.66
2021-09-01 06:24:00,,0822.2,4.99,0.00,29.4,26.4,00.0,38.5,30.9,15.9,0001.0,0037.21,0024.12,0022.57
2021-09-01 06:25:00,,0822.2,5.00,0.00,29.3,26.8,00.0,38.5,30.9,15.9,0001.1,0036.85,0024.06,0022.51
2021-09-01 06:26:00,,0822.2,5.00,0.00,29.3,27.2,00.0,38.5,31.0,16.0,0001.2,0036.91,0024.03,0022.51
2021-09-01 06:27:00,,0822.2,5.00,0.00,29.3,27.5,00.0,38.5,31.1,15.9,0001.4,0036.81,0024.09,0022.57
2021-09-01 06:28:00,,0822.2,4.99,0.00,29.4,27.8,00.0,38.5,31.1,15.8,0001.3,0036.95,0024.18,0022.66
2021-09-01 06:29:00,,0822.2,5.01,0.00,29.4,28.0,00.0,38.5,31.2,15.8,0001.3,0036.58,0024.20,0022.72
2021-09-01 06:30:00,,0822.2,5.00,0.00,29.4,28.2,00.0,38.5,31.3,15.7,0001.3,0036.09,0024.23,0022.75
2021-09-01 06:31:00,,0822.2,4.99,0.00,29.5,28.3,00.0,38.5,31.3,15.6,0001.3,0035.47,0024.24,0022.77
2021-09-01 06:32:00,,0822.2,5.02,0.00,29.5,28.4,00.0,38.5,31.3,15.4,0001.2,0036.39,0024.32,0022.83
2021-09-01 06:33:00,,0822.1,4.99,0.00,29.6,28.5,00.0,38.5,31.4,15.4,0001.0,0036.79,0024.41,0022.89
2021-09-01 06:34:00,,0822.1,5.01,0.00,29.6,28.6,00.0,38.6,31.4,15.3,0001.0,0037.93,0024.57,0023.00
2021-09-01 06:35:00,,0822.2,5.00,0.00,29.6,28.7,00.0,38.6,31.5,15.3,0001.1,0037.85,0024.68,0023.13
2021-09-01 06:36:00,,0822.2,4.99,0.00,29.7,28.8,00.0,38.6,31.5,15.2,0001.3,0037.85,0024.75,0023.23
2021-09-01 06:37:00,,0822.2,5.01,0.00,29.7,28.5,00.0,38.6,31.4,15.2,0001.4,0037.58,0024.82,0023.28
2021-09-01 06:38:00,,0822.2,4.99,0.00,29.6,26.7,00.0,38.6,30.9,15.2,0001.5,0038.67,0024.98,0023.33
2021-09-01 06:39:00,,0822.2,5.00,0.00,29.5,26.2,00.0,38.6,30.8,15.4,0001.6,0039.38,0025.04,0023.41
2021-09-01 06:40:00,,0822.2,5.01,0.00,29.4,26.5,00.0,38.6,30.8,15.3,0001.7,0039.39,0025.13,0023.51
2021-09-01 06:41:00,,0822.2,5.00,0.00,29.3,26.9,00.0,38.5,30.9,15.3,0001.8,0039.38,0025.20,0023.59
2021-09-01 06:42:00,,0822.2,5.01,0.00,29.3,27.2,00.0,38.5,31.0,15.3,0002.0,0039.15,0025.27,0023.64
2021-09-01 06:43:00,,0822.2,4.99,0.00,29.4,27.6,00.0,38.5,31.1,15.2,0002.3,0038.46,0025.34,0023.71
2021-09-01 06:44:00,,0822.2,5.01,0.00,29.4,27.8,00.0,38.5,31.1,15.2,0002.3,0038.50,0025.38,0023.73
2021-09-01 06:45:00,,0822.2,5.00,0.00,29.4,28.0,00.0,38.5,31.2,15.1,0002.3,0038.43,0025.36,0023.71
2021-09-01 06:46:00,,0822.2,5.01,0.00,29.5,28.2,00.0,38.5,31.3,15.1,0002.2,0038.59,0025.35,0023.70
2021-09-01 06:47:00,,0822.2,5.00,0.00,29.5,28.3,00.0,38.5,31.3,15.1,0002.0,0039.02,0025.35,0023.69
2021-09-01 06:48:00,,0822.2,5.00,0.00,29.5,28.5,00.0,38.5,31.3,15.2,0001.7,0039.73,0025.40,0023.73
2021-09-01 06:49:00,,0822.2,4.99,0.00,29.6,28.5,00.0,38.6,31.4,15.2,0001.8,0038.95,0025.33,0023.75
2021-09-01 06:50:00,,0822.2,5.01,0.00,29.6,28.6,00.0,38.6,31.4,15.3,0001.9,0037.78,0025.30,0023.75
2021-09-01 06:51:00,,0822.2,4.99,0.00,29.7,28.7,00.0,38.6,31.5,15.1,0002.1,0037.91,0025.27,0023.72
2021-09-01 06:52:00,,0822.1,5.01,0.00,29.7,28.7,00.0,38.6,31.5,15.0,0002.1,0038.32,0025.29,0023.70
2021-09-01 06:53:00,,0822.1,5.01,0.00,29.7,27.5,00.0,38.6,31.2,15.1,0001.8,0038.14,0025.26,0023.70
2021-09-01 06:54:00,,0822.1,4.99,0.00,29.5,26.2,00.0,38.6,30.9,15.3,0001.5,0038.32,0025.23,0023.67
2021-09-01 06:55:00,,0822.1,5.00,0.00,29.4,26.3,00.0,38.6,30.9,15.4,0001.4,0038.20,0025.19,0023.67
2021-09-01 06:56:00,,0822.1,5.01,0.00,29.4,26.7,00.0,38.6,30.9,15.4,0001.5,0037.03,0025.13,0023.67
2021-09-01 06:57:00,,0822.1,5.00,0.00,29.3,27.1,00.0,38.5,31.0,15.5,0001.7,0037.44,0025.06,0023.65
2021-09-01 06:58:00,,0822.1,5.00,0.00,29.4,27.4,00.0,38.5,31.0,15.7,0001.7,0036.36,0024.94,0023.57
2021-09-01 06:59:00,,0822.0,4.99,0.00,29.4,27.7,00.0,38.5,31.1,15.8,0001.9,0035.46,0024.80,0023.46
